YD1OCG-15 Weather Reports


time (UTC)temp
C
wind
direction
speed
KPH
gust
KPH
rain 1hr
cm
rain 24hr
cm
rain mn
cm
humidity
%
barometer
mb
20260504221754 26 147 4.8 0.0 0.00 0.00 0.00 96 1011.0
20260504214754 26 147 4.8 0.0 0.00 0.00 0.00 96 1011.0
20260504211756 25 117 1.6 0.0 0.00 0.00 0.00 96 1011.0
20260504204754 26 117 1.6 0.0 0.00 0.00 0.00 97 1011.0
20260504201754 26 156 3.2 0.0 0.00 0.00 0.00 99 1011.0
20260504194756 26 156 3.2 0.0 0.00 0.00 0.00 96 1011.0
20260504191754 26 157 4.8 0.0 0.00 0.00 0.00 97 1011.0
20260504184755 26 157 4.8 0.0 0.00 0.00 0.00 92 1011.0
20260504181755 26 110 8.0 0.0 0.00 0.00 0.00 92 1011.0
20260504174755 26 149 9.7 0.0 0.00 0.00 0.00 94 1011.0
20260504171804 26 143 9.7 0.0 0.00 0.00 0.00 92 1012.0
20260504081754 27 335 14.5 0.0 0.00 0.00 0.00 85 1009.0
20260504044754 29 342 14.5 0.0 0.00 0.00 0.00 74 1011.0
20260504041753 29 347 9.7 0.0 0.00 0.00 0.00 87 1012.0
20260504034754 29 347 9.7 0.0 0.00 0.00 0.00 78 1012.0
20260504031755 29 2 8.0 0.0 0.00 0.00 0.00 88 1013.0
20260504024754 29 2 8.0 0.0 0.00 0.00 0.00 79 1013.0
20260504021754 29 23 4.8 0.0 0.00 0.00 0.00 91 1013.0
20260504014754 30 23 4.8 0.0 0.00 0.00 0.00 81 1013.0
20260504011754 28 111 4.8 0.0 0.00 0.00 0.00 92 1013.0
20260504004755 30 111 4.8 0.0 0.00 0.00 0.00 85 1013.0
20260504001759 28 124 8.0 0.0 0.00 0.00 0.00 90 1013.0
20260503234754 28 133 6.4 0.0 0.00 0.00 0.00 91 1013.0
20260503231753 27 145 9.7 0.0 0.00 0.00 0.00 91 1012.0
20260503224754 27 145 9.7 0.0 0.00 0.00 0.00 91 1012.0